Theta_e
311 308 306 308 309 310 314 310 311 314 322 321 318 317 319 326 327 326 328 329 330 330 334 339 342 344 345 347 351 354 356 357 354 350 348 345 344 338 334 333 334 330 330 332
307 304 310 308 306 307 311 309 310 314 314 319 317 315 317 321 324 326 327 329 331 334 336 338 345 346 347 348 351 355 356 355 353 350 348 349 346 343 335 329 330 331 332 333
304 306 309 307 306 304 307 308 308 310 310 312 313 311 314 319 323 325 328 330 332 334 336 341 344 347 349 350 352 355 354 354 350 349 349 346 338 334 327 326 327 329 330 331
306 309 306 306 305 306 304 309 307 305 305 301 312 300 308 312 316 321 326 329 330 333 337 341 344 347 349 351 353 354 351 346 345 343 341 337 330 325 324 325 328 329 331 332
304 306 305 304 305 308 305 309 307 306 306 306 307 303 306 315 313 318 323 326 330 331 336 338 343 347 349 352 349 345 342 343 342 341 339 331 331 328 326 326 331 332 333 333
307 311 308 308 309 309 309 307 307 307 306 300 304 304 304 308 311 314 319 324 327 331 334 338 343 347 348 346 339 345 342 339 337 338 338 336 334 332 325 328 327 328 329 331
306 306 309 310 306 309 308 306 299 297 297 296 305 303 305 311 313 314 316 321 325 330 333 337 341 344 346 339 341 336 335 331 332 335 333 330 333 335 332 330 327 329 327 328
301 299 306 310 308 307 307 307 299 293 295 298 305 299 304 313 316 318 320 324 327 328 330 336 340 344 341 337 338 335 338 334 331 336 332 330 335 328 329 332 328 328 327 330
302 301 308 308 311 310 307 304 309 304 304 299 302 305 310 314 315 317 319 322 324 328 329 331 339 344 341 337 339 339 336 333 335 337 337 334 333 335 331 333 334 330 333 332
307 301 307 308 310 309 309 311 302 304 295 294 300 301 303 310 312 315 318 319 322 331 331 332 337 344 342 339 343 342 338 335 336 339 340 336 334 333 332 333 332 332 333 332
309 307 305 308 306 305 306 305 306 307 305 298 296 300 312 311 315 316 317 319 321 328 332 335 337 341 341 340 340 338 338 337 336 340 340 337 335 333 333 332 332 333 333 331
310 309 303 305 309 310 309 308 308 302 301 304 302 301 314 314 316 317 318 320 322 330 333 335 337 338 339 340 340 340 339 336 336 339 338 335 334 332 332 332 332 332 329 327
311 307 300 302 307 308 306 308 309 309 310 303 299 302 315 316 316 318 319 319 322 330 334 336 337 337 339 340 340 339 339 335 335 335 334 333 332 331 331 332 331 327 325 322
315 310 306 299 303 307 305 306 308 308 303 302 303 305 310 314 315 318 320 321 322 325 331 334 334 336 337 340 340 339 337 335 333 332 332 331 330 330 330 328 324 319 320 318
315 306 307 307 307 307 306 305 307 305 307 303 305 306 310 314 315 318 320 322 323 323 325 328 332 334 336 337 340 338 337 334 332 329 329 329 329 329 327 322 319 318 316 315
315 305 307 304 306 306 303 306 306 307 307 307 307 307 314 316 318 317 319 319 319 320 321 322 324 328 334 335 337 338 336 333 331 328 326 328 328 325 321 318 315 314 313 313
311 308 305 300 305 304 300 305 306 307 309 309 305 310 315 315 316 317 318 319 319 321 322 323 325 328 331 335 337 337 335 333 330 328 327 328 325 320 318 314 314 310 312 314
308 309 306 301 303 294 305 312 310 308 309 311 311 313 314 316 318 319 320 320 320 321 323 326 326 329 331 335 336 337 334 330 329 327 327 325 322 319 316 313 308 309 311 312
312 309 303 300 298 303 305 308 307 306 306 312 311 312 314 316 317 317 320 322 323 325 328 329 330 330 333 333 334 334 330 328 327 326 325 324 322 318 317 310 306 309 311 313
308 312 305 302 297 295 305 311 313 312 302 313 314 314 314 315 309 313 323 324 325 328 331 332 330 331 330 332 333 331 327 326 324 325 324 323 320 317 315 308 306 310 314 312
303 304 301 300 298 302 310 312 313 301 305 316 317 317 317 315 317 323 323 323 327 329 330 330 331 330 330 332 332 330 327 326 327 326 324 321 318 313 309 308 308 310 312 311
300 299 300 302 299 296 312 311 305 313 318 318 318 318 318 319 320 321 323 324 325 327 327 328 329 329 329 331 330 327 324 327 325 322 321 314 309 308 307 307 307 310 310 309
297 303 301 304 303 314 317 316 319 318 315 316 318 318 320 319 319 321 322 323 325 326 328 328 326 323 323 325 325 323 323 323 321 317 312 307 306 307 306 305 307 306 308 305
303 307 303 304 308 310 313 317 318 319 318 318 318 318 318 318 319 320 322 323 325 326 325 323 320 319 319 322 321 320 321 320 314 308 306 306 305 304 304 306 305 304 303 303
302 303 304 304 306 310 313 315 314 312 312 312 313 314 314 315 316 317 319 321 323 324 323 322 319 317 317 319 319 319 318 316 311 308 305 304 307 306 305 305 304 303 308 303
298 299 297 299 306 306 308 311 312 309 310 310 311 312 315 313 312 312 313 319 321 322 323 322 320 318 317 318 317 317 315 310 306 305 305 305 303 305 303 302 302 294 298 295
Wind_Speed
7 11 13 12 3 13 14 18 14 12 7 13 16 15 16 11 9 13 14 16 17 19 18 17 16 15 13 13 14 15 14 13 11 9 8 7 7 7 6 6 7 7 7 7
8 15 12 1 4 5 10 14 15 12 4 9 16 18 16 11 15 15 16 16 18 18 17 16 15 15 14 14 14 14 14 15 11 8 8 6 5 6 5 7 7 7 7 6
16 3 3 11 10 10 10 12 10 11 6 10 7 15 17 18 18 16 17 17 18 19 19 17 18 16 14 14 13 13 13 13 8 7 6 6 7 6 6 7 7 6 7 7
11 10 8 12 16 12 14 11 8 8 8 12 16 12 13 12 14 17 19 17 19 20 19 18 18 16 14 13 13 12 12 9 5 6 8 9 6 9 9 8 7 7 7 7
8 11 16 12 11 14 16 12 14 14 13 13 12 10 16 6 12 16 20 21 21 21 20 20 18 16 15 14 13 15 13 12 8 7 9 8 9 7 9 8 11 7 6 6
15 2 10 13 6 10 1 8 13 13 14 16 20 15 15 12 12 12 15 18 20 19 18 18 16 16 15 17 14 17 18 10 16 10 12 11 9 9 10 10 10 9 7 7
14 15 13 10 12 8 12 13 10 13 15 16 19 12 13 17 8 11 13 11 13 16 17 16 18 18 17 19 21 20 20 16 16 19 15 12 10 11 12 13 10 9 7 6
11 14 18 13 17 13 19 18 15 16 15 16 7 10 13 9 10 7 7 6 6 7 10 16 19 20 20 20 23 22 15 6 9 16 16 13 13 11 11 12 9 8 7 6
7 9 1 5 10 11 9 10 11 13 4 10 9 8 8 10 9 9 9 6 7 6 6 11 15 19 20 20 23 18 14 5 13 18 18 17 15 13 11 13 9 7 6 7
9 12 8 6 8 5 8 3 8 9 16 17 11 8 7 8 11 11 9 9 9 3 5 7 11 16 19 20 22 17 12 10 14 18 18 16 16 15 12 12 12 10 8 7
11 10 10 8 11 13 8 10 8 7 8 12 12 10 7 7 10 9 10 7 7 5 6 8 10 15 18 20 22 20 14 13 14 18 16 16 15 16 14 13 12 12 11 10
9 7 11 17 8 6 11 14 11 10 13 11 10 12 2 6 10 10 10 9 8 7 7 8 10 14 17 20 22 22 17 16 17 17 17 17 16 16 15 14 13 12 11 9
7 8 9 11 9 8 11 14 15 14 10 15 15 11 9 9 10 11 13 11 11 9 10 9 10 13 15 19 19 21 19 18 18 18 18 18 17 17 16 14 13 12 9 10
4 11 13 13 13 3 12 13 14 15 13 15 17 17 14 13 13 15 13 13 12 11 12 12 12 13 14 17 20 19 18 18 18 18 19 18 19 18 17 15 15 12 10 9
6 16 17 19 20 13 17 17 16 16 17 19 17 19 12 14 13 10 12 10 9 11 11 12 13 13 15 16 18 19 19 18 19 20 19 19 18 17 16 16 11 11 10 9
8 14 16 20 19 19 21 20 20 21 19 21 19 20 18 15 7 9 9 9 11 12 13 13 13 13 13 16 17 17 19 20 19 20 20 19 18 17 15 14 13 15 9 11
13 12 16 20 20 21 27 23 22 22 21 19 22 19 16 10 12 13 13 13 13 12 11 11 10 10 10 13 16 18 19 19 19 19 19 19 18 17 15 14 15 11 10 10
17 14 13 17 17 30 15 18 18 18 21 21 23 20 20 15 16 12 8 11 9 9 8 8 8 6 6 9 13 14 17 18 19 19 19 19 19 18 16 15 11 12 10 10
19 17 16 17 18 23 18 9 12 16 20 18 17 15 14 14 9 13 14 8 7 8 7 6 6 6 4 8 11 15 16 17 20 20 20 19 18 19 19 15 13 11 12 11
23 18 16 17 18 27 18 21 16 15 21 16 19 13 15 14 11 11 8 2 1 3 3 1 2 3 5 8 12 15 17 18 20 20 19 18 16 19 18 14 13 10 11 11
15 17 21 18 21 22 15 11 3 18 13 2 4 4 7 9 4 7 5 4 3 3 2 2 2 3 6 9 12 15 16 17 16 15 15 15 15 15 15 13 10 9 12 12
21 11 17 18 23 27 5 5 17 6 3 2 2 3 0 2 4 4 4 3 3 2 1 2 3 4 5 8 11 12 13 11 12 15 15 15 14 12 11 13 7 10 10 11
22 20 15 11 14 2 1 7 6 4 4 3 5 5 5 6 5 5 5 3 3 3 3 2 3 5 6 7 9 11 9 13 14 15 16 14 14 12 11 10 9 9 10 10
20 19 15 18 20 18 10 3 1 1 4 4 4 3 4 5 5 6 6 4 2 3 4 5 5 6 7 9 11 12 12 13 16 17 18 16 15 13 12 8 11 9 9 9
9 10 13 19 20 5 5 4 5 5 6 6 6 6 5 5 5 6 6 6 3 4 6 6 7 8 10 10 11 13 14 17 17 18 15 13 13 14 14 11 8 9 8 8
6 12 5 6 12 11 11 9 9 10 10 11 11 11 10 10 12 12 10 6 5 6 6 7 8 10 12 13 14 15 17 18 19 17 12 11 10 11 10 9 7 10 7 9
Wind_Direction
198 239 219 219 275 322 304 225 200 204 132 210 226 226 233 191 227 227 206 203 205 210 209 206 212 217 217 210 200 190 173 160 168 163 159 159 169 149 124 115 121 128 114 114
211 229 237 2 247 259 239 221 207 127 152 231 226 235 243 225 238 239 225 209 212 210 211 205 211 210 209 204 197 178 169 171 174 155 158 165 142 120 129 125 127 122 125 123
243 228 257 223 216 238 223 233 193 231 158 230 266 254 252 241 243 234 238 233 214 217 210 204 211 205 200 194 182 167 172 171 150 155 131 146 124 134 148 145 143 135 132 121
247 223 214 220 229 229 239 214 234 203 220 233 197 258 232 222 220 226 230 226 229 219 222 208 205 202 199 180 162 148 123 113 133 159 150 178 158 165 162 165 135 147 151 139
229 207 211 213 220 210 242 227 226 223 226 253 203 247 271 176 229 230 223 224 226 227 218 218 203 197 190 169 118 119 131 142 136 187 181 169 193 159 166 154 147 157 153 154
264 117 225 217 224 230 186 216 233 228 238 231 247 227 253 237 213 244 220 223 231 229 228 216 210 191 185 119 132 143 142 152 154 197 204 182 206 168 172 164 164 171 170 167
217 223 223 240 227 194 215 199 204 213 223 244 247 241 252 278 284 269 284 293 230 229 218 215 207 193 181 151 163 164 149 192 175 174 182 195 183 178 175 167 178 174 171 174
225 216 210 202 232 219 201 214 238 236 237 242 149 236 251 249 287 247 258 263 268 251 266 208 210 193 164 178 187 168 187 193 180 168 181 186 178 182 181 192 174 189 180 171
224 239 97 252 229 241 181 226 264 281 256 280 262 187 271 225 237 235 245 265 279 304 278 239 205 191 170 186 197 182 203 169 172 178 188 183 181 189 186 183 171 169 165 149
244 266 235 147 199 184 270 115 206 212 253 250 248 234 263 180 218 220 220 236 255 255 251 209 194 181 185 196 197 203 190 207 191 188 183 180 180 184 180 172 185 169 164 155
236 236 227 200 211 230 178 224 237 299 291 271 266 260 213 228 227 213 220 232 251 207 209 189 187 184 189 199 194 197 201 207 193 192 181 178 181 180 174 175 173 172 164 163
207 239 242 236 248 264 271 260 240 249 232 236 281 280 119 222 221 208 224 226 223 219 206 194 184 187 193 200 196 199 203 197 189 188 181 178 180 176 175 177 168 158 163 160
177 213 238 226 201 211 232 225 239 248 271 263 272 262 183 195 235 222 235 236 228 205 200 207 200 197 200 200 198 199 203 203 188 183 180 175 174 172 176 167 157 153 155 153
250 244 243 256 262 329 205 226 225 232 253 261 249 252 251 207 226 235 233 243 252 224 209 213 212 209 208 206 202 201 200 199 187 183 182 173 171 173 166 156 157 150 139 151
243 242 240 252 261 266 264 260 241 230 248 256 270 274 272 260 275 237 246 247 242 238 232 223 226 227 210 210 208 197 196 199 185 184 180 172 169 165 155 158 144 138 156 142
228 255 255 255 251 250 251 250 254 260 250 260 263 260 272 270 254 237 229 230 243 256 264 263 264 251 225 210 210 200 196 195 186 186 176 169 165 155 153 145 151 141 149 159
269 262 245 250 250 260 255 252 252 256 251 252 258 258 261 220 239 255 259 259 263 266 272 277 281 278 255 221 203 199 193 188 190 186 172 169 165 158 150 141 151 132 164 158
257 259 256 256 258 249 257 259 260 252 253 252 255 257 274 265 269 277 266 256 253 260 276 273 280 273 249 215 201 188 188 185 185 184 175 170 167 162 150 145 145 148 152 161
229 244 257 251 242 253 246 222 233 240 252 245 257 264 252 258 262 263 253 265 288 299 288 284 303 293 226 180 171 181 181 179 189 184 176 169 161 163 156 155 149 158 164 158
227 219 245 243 243 248 258 251 228 242 259 258 263 251 264 275 256 261 48 63 339 325 324 20 68 138 164 166 164 180 177 186 192 184 178 167 159 164 157 152 145 181 158 155
212 226 225 233 249 256 255 271 302 238 254 340 313 295 277 253 323 6 360 353 2 345 22 68 155 171 162 167 171 181 183 190 183 167 158 164 156 148 147 137 153 172 159 147
247 220 222 234 242 248 214 199 231 312 84 191 125 77 345 279 294 303 320 319 306 302 157 204 193 165 158 167 179 182 186 175 151 145 151 137 137 139 131 127 155 166 139 146
242 256 258 250 231 34 71 252 40 5 314 343 329 336 301 291 295 300 300 314 334 273 207 186 179 163 174 175 179 161 149 137 144 130 127 128 125 114 122 128 161 161 160 152
260 259 259 272 249 255 240 220 142 111 65 42 28 341 318 329 333 328 328 335 277 210 194 179 168 179 171 166 152 139 140 136 124 129 131 129 121 131 142 163 179 145 162 163
296 328 259 250 249 265 229 165 87 351 325 318 320 316 306 324 324 326 335 331 289 222 192 185 189 187 174 165 147 149 143 139 138 139 133 132 137 152 168 160 151 158 169 159
230 276 297 282 344 325 297 321 306 309 307 318 317 305 296 313 307 303 291 288 254 210 197 194 198 190 179 172 161 160 153 150 146 140 143 151 159 155 149 146 134 39 100 92